TimeCDT,TemperatureF,Dew PointF,Humidity,Sea Level PressureIn,VisibilityMPH,Wind Direction,Wind SpeedMPH,Gust SpeedMPH,PrecipitationIn,Events,Conditions,WindDirDegrees,DateUTC
12:51 AM,69.1,60.1,73,29.77,10.0,SE,9.2,-,N/A,,Partly Cloudy,130,2013-04-10 05:51:00
1:51 AM,68.0,60.1,76,29.78,10.0,SE,6.9,-,N/A,,Partly Cloudy,140,2013-04-10 06:51:00
2:51 AM,70.0,61.0,73,29.78,10.0,SSE,6.9,-,N/A,,Mostly Cloudy,160,2013-04-10 07:51:00
3:51 AM,70.0,61.0,73,29.75,10.0,SSE,9.2,-,N/A,,Partly Cloudy,150,2013-04-10 08:51:00
4:51 AM,70.0,62.1,76,29.73,10.0,SSE,9.2,-,N/A,,Mostly Cloudy,160,2013-04-10 09:51:00
5:51 AM,71.1,63.0,75,29.72,10.0,SSE,10.4,-,N/A,,Mostly Cloudy,160,2013-04-10 10:51:00
6:51 AM,71.1,63.0,75,29.76,8.0,West,15.0,21.9,N/A,,Overcast,270,2013-04-10 11:51:00
6:58 AM,71.6,62.6,73,29.81,8.0,WNW,12.7,24.2,N/A,,Overcast,300,2013-04-10 11:58:00
7:46 AM,69.8,60.8,73,29.81,9.0,Calm,Calm,-,0.00,,Overcast,0,2013-04-10 12:46:00
7:51 AM,70.0,60.1,71,29.79,9.0,West,3.5,-,0.00,,Overcast,280,2013-04-10 12:51:00
8:51 AM,70.0,60.1,71,29.79,10.0,Calm,Calm,-,0.00,Rain,Light Rain,0,2013-04-10 13:51:00
9:11 AM,69.8,60.8,73,29.82,8.0,Calm,Calm,-,0.01,Rain-Thunderstorm,Light Thunderstorms and Rain,0,2013-04-10 14:11:00
9:46 AM,69.8,60.8,73,29.82,10.0,Calm,Calm,-,0.06,Rain,Light Rain,0,2013-04-10 14:46:00
9:51 AM,69.1,62.1,78,29.80,10.0,Calm,Calm,-,0.06,Rain,Light Rain,0,2013-04-10 14:51:00
10:48 AM,64.4,59.0,83,29.83,10.0,North,9.2,26.5,0.00,,Overcast,350,2013-04-10 15:48:00
10:51 AM,64.0,60.1,87,29.81,10.0,North,4.6,26.5,0.00,,Overcast,10,2013-04-10 15:51:00
11:31 AM,62.6,57.2,82,29.84,7.0,NW,11.5,19.6,0.00,Rain,Light Rain,320,2013-04-10 16:31:00
11:51 AM,64.9,60.1,84,29.82,8.0,North,6.9,-,0.00,,Overcast,360,2013-04-10 16:51:00
12:51 PM,68.0,60.1,76,29.78,8.0,NE,3.5,-,N/A,,Overcast,40,2013-04-10 17:51:00
1:51 PM,75.0,61.0,62,29.74,9.0,Variable,3.5,-,N/A,,Mostly Cloudy,0,2013-04-10 18:51:00
2:51 PM,79.0,63.0,58,29.70,10.0,East,6.9,-,N/A,,Mostly Cloudy,100,2013-04-10 19:51:00
3:08 PM,78.8,64.4,61,29.71,10.0,East,9.2,-,N/A,Thunderstorm,Thunderstorm,100,2013-04-10 20:08:00
3:51 PM,82.0,62.1,51,29.63,10.0,South,16.1,26.5,N/A,Thunderstorm,Thunderstorm,180,2013-04-10 20:51:00
3:59 PM,71.6,62.6,73,29.70,9.0,West,18.4,36.8,N/A,Thunderstorm,Thunderstorm,280,2013-04-10 20:59:00
4:25 PM,69.8,64.4,83,29.70,1.5,Variable,3.5,18.4,0.03,Rain-Thunderstorm,Thunderstorms and Rain,0,2013-04-10 21:25:00
4:32 PM,69.8,64.4,83,29.67,5.0,NNE,10.4,-,0.15,Rain-Thunderstorm,Light Thunderstorms and Rain,30,2013-04-10 21:32:00
4:51 PM,69.1,64.9,87,29.64,7.0,NNE,10.4,-,0.17,,Mostly Cloudy,20,2013-04-10 21:51:00
5:51 PM,68.0,63.0,84,29.62,10.0,ENE,9.2,-,N/A,,Overcast,60,2013-04-10 22:51:00
7:29 PM,77.0,64.4,65,29.59,6.0,SSE,16.1,31.1,0.00,Rain-Thunderstorm,Light Thunderstorms and Rain,160,2013-04-11 00:29:00
7:51 PM,75.0,64.0,69,29.62,5.0,South,23.0,29.9,0.02,Rain-Thunderstorm,Light Thunderstorms and Rain,190,2013-04-11 00:51:00
8:16 PM,62.6,60.8,94,29.72,3.0,West,20.7,43.7,0.16,Rain-Thunderstorm,Thunderstorms and Rain,280,2013-04-11 01:16:00
8:25 PM,62.6,59.0,88,29.73,5.0,WNW,18.4,28.8,0.24,Rain-Thunderstorm,Light Thunderstorms and Rain,300,2013-04-11 01:25:00
8:51 PM,61.0,57.0,87,29.70,4.0,West,12.7,-,0.35,Rain-Thunderstorm,Light Thunderstorms and Rain,280,2013-04-11 01:51:00
9:51 PM,60.1,57.9,93,29.71,4.0,Calm,Calm,-,0.23,Rain-Thunderstorm,Light Thunderstorms and Rain,0,2013-04-11 02:51:00
10:25 PM,60.8,57.2,88,29.70,5.0,East,8.1,-,0.09,Rain-Thunderstorm,Light Thunderstorms and Rain,80,2013-04-11 03:25:00
10:51 PM,60.1,57.9,93,29.66,6.0,East,9.2,-,0.16,Rain,Light Rain,100,2013-04-11 03:51:00
11:16 PM,60.8,57.2,88,29.67,8.0,ESE,17.3,-,0.02,Rain,Light Rain,120,2013-04-11 04:16:00
11:43 PM,60.8,57.2,88,29.67,8.0,East,9.2,-,0.02,,Overcast,90,2013-04-11 04:43:00
11:51 PM,60.1,57.9,93,29.66,8.0,East,9.2,-,0.02,,Overcast,90,2013-04-11 04:51:00